Temp
16 16 15 15 15 16 16 15 15 14 13 12 11 12 11 12 11 11 11 11 11 11 11 11 10 10 10 10 10 9 9 9 9 9 9 9 9 8 8 8 8 8 8 8 9 9 9 9 9
16 16 15 15 17 17 16 15 14 13 12 11 11 11 11 11 11 11 12 11 11 10 10 10 10 10 10 10 10 9 9 9 9 9 9 9 9 8 8 8 8 8 8 9 9 9 9 9 9
16 16 15 16 17 16 16 15 13 12 12 12 11 11 10 11 11 11 11 11 10 10 10 10 10 10 10 10 10 10 9 9 9 9 9 9 9 8 8 8 8 8 8 9 9 9 9 9 9
16 16 16 17 16 15 15 14 13 13 12 12 11 11 12 11 11 11 11 11 10 10 10 10 10 10 10 10 10 10 9 9 9 9 9 9 9 8 8 8 8 8 9 8 9 8 9 9 9
16 16 17 17 16 15 15 14 13 14 12 12 11 11 12 12 11 10 10 10 10 10 10 10 10 9 9 9 10 10 10 9 9 9 9 9 9 9 9 9 8 8 8 8 8 9 9 8 9
16 16 18 18 17 15 15 14 14 13 12 12 11 10 12 12 12 11 11 10 10 10 10 10 10 10 9 9 9 9 9 9 9 9 9 9 9 9 9 9 9 8 8 9 8 8 8 9 9
16 17 17 17 17 16 15 14 14 14 13 13 13 11 12 12 12 11 11 11 11 10 10 10 10 10 10 10 9 9 9 9 9 9 9 9 9 9 9 9 9 8 8 8 8 8 8 8 8
16 17 17 17 17 17 16 15 14 14 14 14 14 12 13 13 12 12 11 11 11 11 10 10 10 10 10 10 9 9 9 9 9 9 9 9 9 9 9 9 9 9 8 9 8 8 8 8 8
16 17 18 18 17 17 16 15 15 15 15 14 14 14 14 14 13 12 12 11 11 11 11 10 10 10 10 10 10 9 9 9 9 9 9 9 9 9 9 9 9 9 9 9 8 8 8 8 8
17 18 18 17 17 17 16 16 15 14 15 14 14 14 14 14 13 13 12 11 11 11 10 10 10 9 9 9 9 9 9 9 9 9 9 9 9 9 9 9 9 8 9 9 9 8 8 8 9
17 18 17 17 17 16 16 16 15 15 14 13 14 14 14 14 13 13 12 11 11 10 10 10 10 10 10 10 10 9 9 9 9 9 9 8 9 9 9 8 9 9 8 8 9 9 9 9 8
17 17 17 17 17 17 16 16 15 15 15 15 15 14 14 14 13 13 12 12 11 11 10 10 10 9 9 9 9 9 9 9 9 8 8 8 8 9 8 8 8 8 8 8 8 8 9 8 9
17 17 17 17 17 17 17 16 16 15 15 15 15 15 14 14 13 13 12 12 11 11 10 9 9 8 8 8 8 8 8 8 8 8 8 8 8 8 8 8 8 8 8 8 8 8 8 8 8
17 17 17 17 17 17 17 16 16 15 16 15 15 15 15 14 13 13 12 12 11 10 10 9 9 9 9 9 9 7 8 7 7 7 8 8 7 7 8 8 8 8 8 8 8 8 8 8 8
17 18 18 17 17 17 17 17 17 16 16 15 15 15 15 14 14 13 12 12 11 9 9 9 9 9 9 9 9 8 7 7 6 7 7 7 7 7 8 8 8 8 8 8 8 8 8 8 8
18 18 19 18 17 17 17 19 18 17 17 16 15 15 15 14 14 13 12 12 11 9 9 9 9 9 8 9 8 8 7 7 7 7 7 7 7 7 7 8 8 8 8 8 8 7 7 7 8
18 19 18 18 17 17 17 19 18 17 17 17 15 15 15 14 14 13 13 12 11 10 9 9 9 9 9 9 8 8 7 7 7 7 7 7 7 7 8 8 8 8 8 8 8 8 8 8 8
19 18 18 18 17 17 17 18 17 18 17 15 16 15 14 14 14 13 13 12 11 11 11 9 10 9 9 9 8 7 6 7 7 7 7 7 8 8 8 7 7 8 8 8 8 8 8 8 8
17 17 18 18 17 17 18 18 18 18 18 15 15 15 14 14 14 13 13 12 12 11 11 11 10 10 9 9 8 8 7 7 7 7 7 8 8 8 8 7 7 8 8 8 8 8 8 9 9
17 17 18 17 17 17 17 18 17 18 18 17 14 15 15 14 14 13 13 12 12 11 12 11 10 10 9 9 8 8 8 8 8 8 8 8 8 8 8 8 8 8 8 8 8 8 8 8 8
17 17 18 18 17 17 17 18 18 17 18 18 17 16 15 14 14 13 13 12 11 11 12 11 10 10 10 9 9 8 9 9 8 8 8 8 8 8 8 8 8 8 8 8 8 8 8 8 8
18 17 17 17 18 19 18 20 18 18 17 17 17 17 15 14 14 13 13 12 12 11 11 11 10 10 10 9 9 8 9 8 8 8 9 9 8 8 8 8 8 8 8 8 8 8 8 8 8
18 17 17 17 18 18 18 18 19 18 17 16 17 17 17 15 14 13 12 12 12 12 11 11 10 10 10 10 9 9 8 8 8 9 9 9 8 8 8 8 8 8 8 8 8 8 8 8 8
16 16 16 16 18 19 18 18 19 19 17 16 16 16 16 16 14 13 13 12 12 11 11 11 11 10 10 10 9 9 9 8 8 8 8 8 9 9 9 9 8 8 8 8 8 8 8 8 8
16 17 18 19 19 19 16 17 19 17 17 17 17 16 16 15 14 13 13 12 12 11 11 11 11 11 10 10 9 9 9 8 8 8 8 9 9 9 9 9 9 9 8 8 8 8 7 8 8
16 17 18 18 19 19 16 18 18 17 17 17 16 16 16 15 14 14 13 12 12 12 11 11 11 11 10 10 9 8 8 8 8 8 8 9 9 9 9 9 9 9 9 8 8 8 8 8 8
16 16 17 17 17 18 19 17 17 17 17 16 16 15 16 15 15 14 13 12 12 12 11 11 11 11 10 9 9 8 8 8 8 8 8 8 8 9 8 8 9 8 8 8 9 8 8 8 8
16 16 16 17 18 18 18 17 18 17 16 16 16 15 15 15 15 15 13 12 12 12 11 10 11 11 10 9 8 8 7 7 8 8 8 8 8 8 8 8 8 8 8 8 8 8 8 8 8
15 16 16 17 17 19 18 18 17 16 16 16 16 16 15 15 15 14 13 12 12 11 11 10 11 11 10 9 7 7 6 7 7 8 8 8 8 8 8 8 8 8 8 8 8 8 8 8 8
15 16 16 17 16 17 17 18 16 16 16 16 16 16 15 15 15 14 13 13 12 11 11 10 11 10 10 9 7 6 6 7 7 7 7 7 8 8 8 8 8 8 7 8 8 7 8 8 8
Height
3192 3190 3190 3189 3195 3194 3192 3193 3191 3190 3189 3188 3187 3187 3186 3187 3187 3193 3189 3191 3193 3195 3196 3197 3198 3198 3199 3201 3201 3202 3203 3204 3204 3205 3206 3207 3208 3209 3210 3210 3211 3210 3209 3211 3211 3210 3211 3211 3210
3194 3194 3194 3192 3196 3194 3197 3196 3194 3192 3190 3189 3188 3188 3188 3186 3187 3188 3189 3192 3194 3196 3197 3198 3199 3199 3200 3202 3202 3203 3205 3205 3206 3206 3207 3208 3209 3210 3211 3211 3211 3212 3211 3211 3212 3212 3212 3211 3212
3197 3198 3197 3198 3198 3197 3200 3199 3197 3194 3192 3191 3190 3187 3187 3186 3188 3189 3191 3193 3195 3196 3198 3199 3200 3201 3202 3203 3204 3205 3206 3206 3207 3208 3209 3209 3210 3211 3211 3211 3211 3211 3213 3212 3212 3212 3212 3213 3213
3199 3201 3200 3201 3201 3202 3201 3201 3199 3198 3195 3192 3191 3189 3189 3188 3188 3191 3193 3195 3196 3197 3199 3200 3201 3202 3203 3204 3206 3206 3207 3208 3209 3209 3209 3210 3211 3212 3212 3211 3212 3211 3212 3213 3212 3212 3212 3213 3214
3202 3202 3202 3202 3203 3204 3202 3201 3200 3200 3196 3196 3194 3192 3191 3191 3192 3193 3195 3196 3197 3198 3199 3200 3202 3202 3203 3204 3206 3207 3208 3209 3210 3210 3210 3210 3211 3212 3212 3212 3212 3212 3212 3213 3213 3213 3214 3214 3215
3205 3203 3203 3203 3205 3205 3204 3203 3202 3202 3199 3196 3196 3195 3194 3193 3194 3195 3196 3198 3198 3199 3200 3201 3202 3203 3204 3205 3205 3206 3208 3209 3210 3211 3211 3211 3211 3212 3212 3212 3213 3212 3212 3212 3213 3213 3214 3214 3215
3206 3206 3207 3206 3207 3206 3206 3204 3205 3204 3202 3200 3198 3199 3198 3196 3196 3196 3197 3199 3199 3200 3201 3202 3203 3204 3204 3206 3206 3206 3207 3208 3210 3211 3212 3212 3212 3212 3212 3212 3213 3213 3213 3214 3213 3213 3215 3215 3216
3206 3208 3208 3207 3207 3208 3207 3206 3205 3206 3204 3202 3200 3201 3199 3198 3197 3198 3198 3199 3200 3200 3201 3202 3203 3203 3205 3206 3207 3207 3208 3209 3209 3211 3211 3212 3212 3212 3213 3212 3213 3213 3213 3213 3214 3214 3214 3215 3214
3208 3208 3207 3208 3208 3209 3208 3208 3206 3206 3204 3204 3203 3202 3201 3199 3199 3199 3199 3200 3200 3201 3201 3202 3203 3204 3204 3205 3206 3207 3208 3209 3210 3210 3211 3211 3211 3212 3213 3213 3212 3213 3213 3213 3214 3214 3214 3214 3214
3207 3205 3208 3210 3209 3209 3209 3210 3208 3208 3206 3205 3205 3204 3203 3201 3201 3200 3200 3201 3201 3202 3202 3203 3203 3202 3202 3203 3204 3205 3207 3208 3209 3210 3210 3210 3211 3211 3212 3212 3212 3212 3213 3213 3213 3214 3214 3214 3215
3208 3207 3210 3210 3209 3209 3210 3210 3210 3210 3209 3208 3206 3205 3204 3203 3202 3201 3201 3202 3202 3203 3203 3203 3203 3204 3204 3204 3204 3205 3205 3205 3206 3208 3209 3209 3210 3210 3210 3211 3212 3211 3212 3212 3212 3212 3212 3213 3214
3209 3209 3210 3210 3209 3209 3210 3211 3211 3210 3210 3208 3207 3206 3205 3204 3204 3203 3202 3202 3203 3204 3204 3205 3204 3203 3203 3202 3202 3202 3203 3205 3205 3204 3205 3207 3208 3209 3209 3209 3210 3211 3210 3211 3211 3212 3212 3211 3212
3209 3210 3210 3210 3210 3209 3209 3210 3211 3210 3209 3208 3207 3206 3206 3205 3204 3204 3203 3203 3203 3203 3204 3204 3203 3201 3201 3201 3200 3201 3203 3202 3202 3203 3204 3204 3205 3206 3207 3208 3208 3209 3209 3209 3209 3210 3210 3210 3211
3208 3209 3210 3210 3209 3209 3209 3209 3208 3209 3208 3208 3208 3206 3206 3206 3205 3205 3204 3203 3203 3203 3203 3204 3203 3202 3200 3198 3197 3196 3195 3194 3197 3199 3200 3200 3200 3200 3203 3205 3205 3206 3207 3207 3208 3208 3208 3208 3208
3207 3209 3209 3209 3209 3209 3209 3209 3207 3207 3207 3207 3207 3206 3206 3205 3205 3205 3205 3204 3203 3203 3202 3202 3201 3201 3199 3196 3193 3190 3189 3189 3188 3193 3195 3195 3192 3197 3198 3201 3202 3203 3204 3204 3205 3205 3205 3205 3205
3207 3208 3206 3207 3208 3208 3209 3205 3207 3206 3205 3206 3206 3206 3206 3205 3205 3205 3205 3204 3204 3203 3202 3201 3199 3199 3197 3193 3190 3186 3184 3185 3183 3186 3191 3192 3191 3191 3195 3199 3199 3200 3201 3201 3201 3201 3200 3200 3201
3205 3201 3205 3206 3206 3206 3207 3204 3206 3205 3205 3204 3204 3205 3205 3205 3205 3205 3205 3205 3204 3202 3201 3201 3199 3197 3195 3191 3187 3181 3178 3180 3179 3183 3188 3191 3189 3190 3195 3196 3197 3197 3198 3199 3199 3198 3197 3196 3196
3199 3202 3203 3205 3206 3204 3205 3205 3205 3204 3204 3203 3203 3204 3205 3205 3204 3204 3205 3204 3203 3202 3201 3199 3198 3197 3193 3189 3183 3175 3172 3177 3180 3183 3187 3190 3190 3191 3194 3194 3194 3194 3194 3194 3194 3193 3192 3192 3192
3200 3203 3203 3204 3203 3202 3202 3203 3204 3203 3202 3202 3200 3201 3202 3204 3204 3204 3204 3203 3203 3202 3201 3199 3197 3195 3192 3189 3184 3173 3170 3176 3183 3185 3187 3188 3189 3191 3191 3192 3191 3191 3191 3190 3189 3188 3187 3187 3186
3201 3201 3201 3203 3201 3201 3200 3202 3202 3202 3202 3201 3199 3198 3199 3201 3202 3203 3203 3203 3202 3202 3200 3198 3197 3195 3192 3191 3189 3182 3180 3181 3183 3184 3186 3187 3188 3189 3189 3188 3187 3187 3185 3184 3184 3183 3182 3182 3181
3199 3198 3199 3201 3200 3200 3199 3199 3200 3200 3199 3198 3197 3194 3194 3198 3201 3202 3203 3202 3201 3201 3200 3198 3196 3194 3193 3191 3190 3188 3183 3184 3186 3186 3188 3188 3188 3188 3186 3184 3183 3182 3181 3180 3178 3178 3177 3176 3175
3194 3197 3199 3200 3200 3195 3198 3193 3195 3197 3197 3195 3194 3191 3190 3195 3198 3201 3201 3201 3201 3200 3198 3197 3195 3194 3193 3192 3191 3190 3187 3187 3187 3189 3189 3188 3187 3184 3181 3180 3179 3177 3177 3175 3174 3173 3172 3171 3171
3193 3195 3197 3198 3198 3197 3194 3196 3191 3193 3195 3195 3192 3191 3191 3193 3197 3199 3200 3200 3200 3199 3198 3197 3195 3193 3192 3191 3190 3189 3189 3188 3187 3187 3186 3185 3182 3180 3178 3176 3174 3174 3172 3171 3170 3169 3168 3167 3167
3192 3195 3196 3196 3195 3193 3190 3194 3187 3190 3193 3193 3193 3191 3192 3194 3196 3197 3198 3198 3198 3198 3197 3195 3194 3192 3190 3190 3189 3188 3188 3187 3186 3185 3184 3183 3180 3178 3176 3174 3173 3172 3170 3169 3167 3166 3165 3165 3164
3192 3193 3190 3189 3187 3185 3189 3192 3187 3189 3190 3191 3191 3190 3192 3194 3195 3195 3195 3196 3196 3196 3195 3193 3191 3190 3188 3187 3186 3187 3186 3185 3184 3184 3182 3181 3179 3176 3175 3174 3173 3171 3168 3167 3165 3164 3163 3163 3162
3188 3189 3185 3184 3181 3182 3189 3187 3186 3188 3188 3188 3189 3189 3191 3192 3193 3193 3193 3194 3194 3194 3193 3191 3189 3187 3185 3183 3183 3183 3183 3183 3183 3182 3180 3179 3178 3176 3175 3173 3172 3170 3168 3166 3165 3163 3162 3161 3161
3186 3188 3187 3187 3188 3186 3180 3185 3187 3187 3187 3188 3188 3188 3189 3192 3191 3191 3192 3192 3192 3191 3190 3189 3186 3184 3182 3180 3180 3180 3181 3181 3181 3181 3179 3177 3176 3175 3174 3172 3171 3169 3168 3167 3165 3164 3161 3161 3160
3183 3185 3186 3185 3181 3182 3178 3183 3181 3186 3187 3187 3187 3186 3189 3190 3190 3189 3189 3189 3189 3188 3188 3186 3184 3181 3178 3176 3175 3173 3175 3176 3180 3179 3178 3177 3176 3175 3173 3171 3170 3169 3169 3168 3166 3164 3162 3161 3158
3180 3181 3183 3180 3181 3175 3177 3179 3181 3184 3186 3185 3185 3186 3187 3188 3188 3187 3187 3186 3186 3186 3185 3183 3182 3177 3174 3170 3163 3158 3166 3171 3178 3177 3177 3176 3176 3174 3173 3171 3169 3168 3169 3168 3166 3164 3161 3160 3159
3174 3176 3178 3178 3181 3181 3180 3178 3180 3182 3183 3183 3183 3184 3185 3185 3185 3184 3184 3184 3183 3183 3181 3180 3178 3175 3171 3164 3152 3165 3166 3173 3175 3176 3175 3175 3173 3173 3172 3171 3170 3168 3168 3167 3166 3163 3162 3161 3160
Wind_Speed
23 24 23 18 16 18 22 19 15 14 9 9 3 3 1 3 2 3 9 14 15 12 11 10 11 11 10 9 9 9 8 7 6 6 7 7 6 7 8 7 5 5 6 6 5 6 6 6 6
17 18 21 20 17 22 20 18 18 15 11 8 7 6 4 5 5 2 10 16 16 13 11 9 10 10 10 8 9 8 8 8 7 6 6 6 6 6 7 6 4 4 11 6 6 4 4 5 6
15 14 15 14 20 21 18 16 14 14 11 7 7 6 6 5 9 5 14 16 15 14 11 9 9 9 9 7 7 7 7 7 7 7 7 6 6 5 5 5 3 5 8 10 4 2 2 4 5
13 13 17 17 17 14 14 13 13 14 13 10 8 8 10 14 15 13 13 14 13 13 10 9 9 8 8 7 6 5 7 6 6 7 8 6 6 5 4 4 3 4 5 6 5 5 4 4 4
11 11 11 14 16 12 11 10 12 14 14 12 8 10 10 11 11 11 12 12 12 12 10 10 9 8 8 8 7 6 5 6 5 5 6 7 6 5 3 2 1 2 5 5 5 4 3 1 4
8 8 10 14 13 10 7 7 11 12 11 14 12 10 9 11 11 12 12 11 11 11 9 9 7 7 6 6 7 7 6 5 5 5 5 6 5 4 2 2 1 1 3 5 4 4 2 6 4
8 7 10 10 10 9 5 5 8 9 10 12 13 8 8 7 10 12 12 12 10 11 9 8 7 6 5 4 4 5 7 6 5 5 4 4 4 3 3 2 2 2 1 3 3 3 3 8 3
5 4 6 6 10 11 5 6 6 7 8 13 16 6 10 7 6 9 10 10 10 10 9 8 7 6 5 4 4 4 5 6 6 5 5 4 3 2 2 2 2 3 3 2 1 2 2 4 5
3 2 4 6 5 10 5 6 9 8 7 9 13 13 11 11 9 8 8 8 8 7 7 8 6 6 5 5 4 4 5 6 7 6 6 5 4 3 2 2 2 3 3 3 2 3 2 2 4
4 6 4 2 2 4 2 4 7 7 8 7 9 11 11 11 11 11 8 6 7 7 7 7 7 7 8 8 8 8 8 9 8 8 8 8 6 5 4 4 5 3 3 3 4 4 4 4 5
5 4 5 1 1 2 2 3 3 6 5 4 7 8 9 9 10 10 9 8 6 7 7 7 8 8 9 9 10 11 11 11 11 10 9 9 8 8 7 6 5 5 5 5 5 6 7 7 7
6 6 5 1 5 2 4 4 3 4 4 8 10 7 6 7 7 8 6 4 4 4 5 2 7 10 11 13 15 15 16 15 15 14 13 12 12 11 10 8 7 8 7 7 8 10 9 8 9
6 5 4 1 3 3 2 4 5 3 3 2 8 7 5 5 6 7 6 4 2 1 3 9 12 2 10 12 17 18 19 19 21 19 16 15 13 14 13 11 11 11 11 11 11 12 12 10 10
8 6 3 2 2 2 0 4 3 5 6 4 1 6 6 4 4 5 5 7 8 5 4 5 5 8 6 11 17 22 15 23 30 22 21 19 19 16 13 13 12 12 13 14 13 14 15 13 13
6 6 5 5 4 4 3 4 4 8 7 7 6 1 5 4 4 4 5 8 10 8 8 5 9 9 12 14 16 20 30 21 26 31 24 22 22 18 12 12 12 13 13 14 15 15 16 18 19
6 7 8 3 8 9 8 3 2 5 5 7 10 6 4 4 4 3 4 7 10 8 4 2 6 9 15 17 15 17 22 23 22 38 23 20 22 9 7 10 12 11 12 14 14 15 18 19 19
11 8 5 3 6 8 9 3 4 5 4 7 11 12 5 3 3 2 3 5 7 7 4 7 9 11 17 18 20 23 19 16 9 30 25 18 7 5 9 12 11 11 13 16 18 20 20 20 23
13 11 5 5 5 8 12 11 8 6 6 9 10 14 11 3 1 3 1 2 4 4 6 6 8 12 16 19 22 20 20 10 8 7 6 6 5 8 11 10 9 13 15 16 18 20 21 22 23
7 9 8 6 6 5 10 12 7 7 7 9 11 16 16 8 5 3 1 1 2 5 6 9 7 11 13 13 22 13 4 6 9 6 4 3 5 8 12 10 11 13 16 18 20 21 22 22 23
13 13 10 7 5 1 2 7 7 8 6 9 13 13 16 16 10 5 3 3 3 4 9 10 10 12 10 8 8 24 22 18 13 11 5 1 6 12 11 12 14 15 17 18 18 19 19 21 21
17 15 11 8 3 2 2 10 7 8 9 13 14 16 17 19 14 7 4 3 4 5 8 10 11 12 10 6 4 9 17 11 7 7 6 4 6 12 14 15 15 15 16 19 17 17 19 19 17
17 14 11 9 9 10 4 9 8 9 7 8 10 10 12 21 19 13 6 3 5 6 7 8 8 11 8 3 3 2 6 9 6 3 4 7 11 14 12 12 11 11 13 13 13 13 12 14 15
8 8 9 9 9 9 11 9 9 8 6 3 3 2 10 17 16 13 9 8 6 7 8 10 7 8 8 4 2 1 5 6 2 4 8 11 13 11 8 10 10 9 8 8 9 10 8 10 12
11 8 7 6 10 15 9 7 15 6 5 3 1 6 7 9 14 15 13 9 7 7 9 9 8 8 5 4 5 5 4 3 3 5 9 12 13 9 8 8 7 5 5 7 7 8 7 7 8
15 13 14 10 12 7 4 6 10 1 7 5 6 9 8 7 10 11 10 9 7 6 8 7 5 8 8 6 8 9 7 7 4 5 7 11 12 10 7 6 7 7 8 6 6 7 7 7 6
19 17 15 5 7 6 5 7 5 4 6 5 3 9 10 7 8 9 11 8 8 5 6 7 9 11 12 10 10 13 10 8 6 5 7 10 11 9 6 7 7 6 7 6 6 6 4 5 6
16 17 9 7 5 11 8 7 7 6 3 4 4 11 11 5 7 12 13 12 10 9 8 9 12 14 15 14 13 15 13 7 5 5 5 7 8 7 5 5 6 7 7 7 7 7 5 4 5
12 16 10 12 6 8 6 6 4 4 4 5 5 9 11 7 3 9 13 14 13 10 9 11 15 16 16 14 15 19 20 9 5 5 4 5 6 6 4 4 4 5 5 6 6 7 7 4 5
18 16 14 7 6 5 5 9 7 4 4 6 10 9 11 12 10 6 10 15 13 10 11 13 15 17 16 17 21 25 18 12 10 3 1 2 3 4 3 3 4 5 5 6 7 8 8 7 5
15 20 19 17 12 15 10 4 9 8 8 10 10 11 11 10 11 7 8 9 11 12 11 12 13 13 11 17 4 4 15 10 6 3 1 1 4 5 4 2 2 3 4 5 7 9 9 7 6
Wind_Direction
75 74 71 74 68 68 59 54 51 52 43 71 73 87 313 148 153 129 154 156 146 143 132 127 126 123 121 120 123 126 123 123 124 130 137 135 137 132 132 140 151 126 139 73 74 90 86 92 98
66 65 68 58 67 63 59 52 53 52 58 62 39 41 52 222 192 56 154 151 143 140 137 127 123 124 121 120 121 123 126 127 126 133 135 146 152 147 139 141 148 123 95 123 38 68 85 90 98
64 62 73 74 64 63 63 56 53 46 46 47 43 84 82 112 183 173 159 150 142 141 139 127 122 117 115 110 112 121 128 127 131 136 137 153 154 154 155 157 150 137 130 93 76 93 113 82 99
71 71 62 67 72 72 69 63 55 40 40 52 70 72 95 103 132 135 147 149 144 142 142 128 123 118 115 114 109 115 127 127 136 139 133 141 139 152 165 166 157 144 143 137 133 94 146 125 117
77 67 85 72 70 72 78 74 62 46 53 50 66 84 97 115 128 138 147 149 147 143 144 136 133 131 136 132 123 121 130 136 145 148 142 143 146 155 157 163 136 164 147 158 162 200 175 161 161
76 69 77 66 68 65 78 72 66 58 61 58 74 81 88 122 133 144 151 156 153 146 145 138 137 137 141 141 142 137 139 147 153 151 156 152 153 157 157 170 204 230 179 163 174 189 170 195 202
102 65 66 71 66 62 68 88 61 67 63 58 64 74 80 112 138 150 154 160 161 152 145 140 142 144 143 153 161 157 157 164 164 152 147 143 141 151 166 184 182 214 208 192 198 211 174 188 190
134 89 83 58 61 68 65 83 72 69 60 65 59 51 58 82 134 157 160 169 171 161 152 146 151 159 155 172 180 187 186 177 175 166 157 154 149 160 158 188 212 215 223 215 194 192 209 187 196
179 222 98 80 78 72 73 77 56 54 56 62 68 71 69 75 97 127 162 180 180 174 166 164 170 176 181 196 205 208 209 201 196 189 178 184 183 186 215 218 238 225 233 237 209 213 219 202 194
234 274 99 137 126 88 94 95 55 64 48 65 62 64 73 81 90 99 130 155 179 183 183 195 196 197 200 209 213 216 216 215 209 208 201 201 211 224 245 263 239 233 242 235 238 226 239 221 197
171 126 126 64 223 237 143 137 120 92 59 56 73 60 69 86 94 98 121 152 175 193 203 214 231 237 242 242 243 245 233 227 221 219 226 229 228 235 245 253 245 248 252 257 244 236 220 230 221
151 151 155 84 68 101 185 162 113 130 105 69 54 79 68 86 104 108 118 128 172 204 216 299 297 257 251 250 249 246 250 247 240 225 224 234 240 246 249 243 253 250 259 252 261 254 243 227 228
164 169 184 25 34 88 139 185 203 181 215 79 58 65 76 92 96 102 107 119 113 69 104 87 28 237 255 265 264 258 269 255 247 238 232 233 237 246 254 254 246 253 256 252 252 259 256 248 245
179 169 181 263 325 8 18 236 230 214 232 216 54 67 69 97 97 92 88 70 70 93 113 174 41 14 321 295 284 256 276 248 242 242 237 231 230 226 240 255 255 258 264 261 257 257 257 258 261
191 225 220 243 278 282 289 255 265 243 246 231 230 94 89 103 85 82 79 65 68 81 104 168 276 311 334 313 298 269 251 273 246 235 234 240 236 229 229 240 261 261 254 259 257 255 258 259 261
218 224 225 209 265 255 262 223 249 291 308 245 237 228 137 110 101 83 75 62 60 68 62 43 310 315 321 319 307 286 261 251 274 220 227 243 252 208 223 251 255 254 261 261 258 258 266 260 256
218 242 240 283 286 242 231 241 244 288 297 271 236 227 213 104 104 104 72 62 63 51 25 319 308 314 322 330 324 303 270 261 217 218 227 245 256 248 239 240 249 258 260 262 266 267 270 261 262
213 233 233 272 295 267 243 238 267 299 289 243 236 221 223 200 160 152 95 51 40 50 15 352 332 330 339 351 339 317 253 252 195 173 192 263 270 255 245 242 251 265 271 273 273 273 272 266 265
216 236 254 255 310 308 244 241 235 254 286 234 243 227 218 225 225 210 177 284 10 352 2 7 359 339 350 10 1 15 10 212 102 78 13 307 278 280 284 259 265 271 276 278 278 275 270 267 265
234 245 238 239 295 181 241 215 216 231 243 257 243 249 231 216 230 210 211 240 290 331 349 2 0 352 356 39 46 66 70 93 82 82 70 339 264 297 287 284 285 282 281 280 277 270 267 269 266
240 242 219 242 248 263 253 232 228 235 262 273 277 271 227 214 223 198 186 220 253 311 341 357 352 356 359 33 90 69 73 95 94 62 38 16 303 287 296 292 285 280 275 276 274 275 269 267 265
226 217 219 231 243 243 223 288 201 241 255 277 298 292 222 206 211 209 220 231 271 298 319 330 344 343 353 7 12 247 124 109 65 6 336 326 319 316 310 297 287 282 278 279 279 277 271 263 263
216 194 215 220 243 262 240 261 264 282 231 267 286 214 184 195 200 209 216 231 272 296 323 326 321 327 348 333 276 355 214 239 294 348 339 335 333 323 318 311 310 295 287 281 289 293 286 280 273
213 174 170 201 249 248 249 266 275 223 222 216 35 205 193 183 194 202 215 220 265 286 321 322 317 312 326 309 262 258 258 251 299 332 335 334 339 330 329 338 334 334 317 295 298 293 294 296 282
191 206 229 225 217 252 153 237 271 229 285 238 212 209 177 179 196 212 214 229 252 275 316 309 313 313 304 280 260 249 255 262 267 305 327 336 344 340 328 342 343 348 346 339 330 312 286 277 279
208 224 256 246 258 236 163 239 222 231 256 257 204 198 170 187 199 225 222 217 244 275 305 307 315 317 304 277 251 244 244 262 264 301 330 345 344 339 312 332 347 345 352 1 343 336 311 291 286
207 217 239 256 244 272 216 225 250 235 256 177 163 173 184 180 219 233 225 227 251 266 283 300 318 318 306 281 257 245 237 257 267 288 325 345 344 342 324 337 350 353 350 352 355 0 356 308 292
207 211 205 225 250 257 167 242 235 208 218 198 197 206 204 207 302 255 233 228 243 272 273 294 312 316 301 280 263 239 220 173 245 273 326 348 336 334 347 358 5 13 8 22 24 26 27 2 17
212 217 229 264 254 301 231 208 180 213 201 232 234 242 233 253 298 283 234 232 252 269 276 290 310 318 315 312 253 211 185 218 217 223 335 353 346 345 348 24 34 43 26 23 13 24 30 27 21
218 230 229 229 204 236 288 298 172 212 240 262 255 253 266 272 301 296 258 250 258 267 273 286 313 320 332 11 314 229 150 175 184 176 122 359 11 347 336 16 32 38 21 14 26 34 28 31 21